{"data":{"norad_id":67069,"epoch":"2026-05-25T00:33:48.646080Z","epoch_age_seconds":83219,"freshness":"FRESH","line1":"1 67069U 25296A   26145.02347970  .00008623  00000+0  44906-3 0  9996","line2":"2 67069  41.3513 253.2925 0004039 319.3094  40.7425 15.16082859 24722","mean_motion":15.16082859,"eccentricity":0.0004039,"inclination_deg":41.3513,"raan_deg":253.2925,"arg_perigee_deg":319.3094,"mean_anomaly_deg":40.7425,"bstar":0.00044906,"rev_number":2472,"period_min":94.981616041079,"perigee_km":514.90782388482,"apogee_km":520.47827539892,"semimajor_km":6895.8300496419,"source":"CELESTRAK","updated_at":"2026-05-25T13:38:06.703177Z"}}